Weather History for Mineola, TX

Change the Weather History Date:

Monday, August 5, 2013

  Actual Average (KTYR) Record (KTYR)
Temperature  
Mean Temperature 88 °F 84 °F  
Max Temperature 98 °F 94 °F 107 °F (2011)
Min Temperature 78 °F 74 °F 57 °F (1974)
Degree Days  
Heating Degree Days 0 0  
Month to date heating degree days 0  
Since 1 June heating degree days 0  
Since 1 July heating degree days 0  
Cooling Degree Days 23 19  
Month to date cooling degree days 95  
Year to date cooling degree days 1453  
Since 1 June cooling degree days 1084  
Growing Degree Days 38 (Base 50)    
Moisture  
Dew Point 68 °F    
Average Humidity 55    
Maximum Humidity 83    
Minimum Humidity 30    
Precipitation  
Precipitation 0.00 in 0.08 in 2.37 in (1978)
Month to date precipitation 0.36  
Year to date precipitation 26.76  
Snow  
Snow 0.00 in - - ()
Month to date snowfall  
Since 1 June snowfall  
Since 1 July snowfall  
Snow Depth -    
Sea Level Pressure  
Sea Level Pressure 29.97 in    
Wind  
Wind Speed 4 mph (SSW)    
Max Wind Speed 13 mph    
Max Gust Speed 16 mph    
Visibility 10 miles    
Events      
T = Trace of Precipitation, MM = Missing Value Source: NWS Daily Summary

Daily Weather History Graph

Daily Weather History Graph

Search for Another Location

Airport:

Trip Planner

Search our weather history database for the weather conditions in past years. The results will help you decide how hot, cold, wet, or windy it might be!

Date:

Astronomy

Aug. 05, 2013 Rise Set
Actual Time 6:38 AM CDT 8:16 PM CDT
Civil Twilight 6:12 AM CDT 8:43 PM CDT
Nautical Twilight 5:40 AM CDT 9:15 PM CDT
Astronomical Twilight 5:06 AM CDT 9:48 PM CDT
Moon 5:34 AM CDT (8/5) 7:19 PM CDT (8/5)
Length of Visible Light 14h 30m
Length of Day
13h 37m
Waning Crescent, 1% of the Moon is Illuminated
Aug 5
Waning Crescent
Aug 6
New
Aug 14
First Quarter
Aug 20
Full
Aug 28
Last Quarter

Hourly Weather History & Observations

Time (CDT) Temp. Heat Index Dew Point Humidity Pressure Visibility Wind Dir Wind Speed Gust Speed Precip Events Conditions
12:15 AM 78.8 °F - 73.4 °F 83% 30.01 in 10.0 mi Calm Calm - N/A   Unknown
12:35 AM 78.8 °F - 73.4 °F 83% 30.00 in 10.0 mi Calm Calm - N/A   Unknown
12:55 AM 80.6 °F 85.4 °F 73.4 °F 79% 30.00 in 10.0 mi SE 3.5 mph - N/A   Unknown
1:15 AM 82.4 °F 87.2 °F 71.6 °F 70% 30.00 in 10.0 mi SE 3.5 mph - N/A   Unknown
1:35 AM 82.4 °F 87.2 °F 71.6 °F 70% 30.00 in 10.0 mi Calm Calm - N/A   Unknown
1:55 AM 80.6 °F 84.6 °F 71.6 °F 74% 29.99 in 10.0 mi Calm Calm - N/A   Unknown
2:15 AM 82.4 °F 88.2 °F 73.4 °F 74% 30.00 in 10.0 mi South 4.6 mph - N/A   Unknown
2:35 AM 82.4 °F 88.2 °F 73.4 °F 74% 30.00 in 10.0 mi South 3.5 mph - N/A   Unknown
2:55 AM 82.4 °F 88.2 °F 73.4 °F 74% 30.00 in 10.0 mi South 3.5 mph - N/A   Unknown
3:15 AM 82.4 °F 88.2 °F 73.4 °F 74% 30.01 in 10.0 mi Calm Calm - N/A   Unknown
3:35 AM 82.4 °F 88.2 °F 73.4 °F 74% 30.01 in 10.0 mi South 3.5 mph - N/A   Unknown
3:55 AM 82.4 °F 88.2 °F 73.4 °F 74% 30.00 in 10.0 mi Calm Calm - N/A   Unknown
4:15 AM 82.4 °F 88.2 °F 73.4 °F 74% 30.00 in 10.0 mi South 4.6 mph - N/A   Unknown
4:35 AM 82.4 °F 88.2 °F 73.4 °F 74% 30.00 in 10.0 mi South 4.6 mph - N/A   Unknown
4:55 AM 82.4 °F 88.2 °F 73.4 °F 74% 30.00 in 10.0 mi South 5.8 mph - N/A   Unknown
5:15 AM 80.6 °F 85.4 °F 73.4 °F 79% 30.00 in 10.0 mi South 4.6 mph - N/A   Unknown
5:35 AM 80.6 °F 85.4 °F 73.4 °F 79% 30.00 in 10.0 mi SSW 5.8 mph - N/A   Unknown
5:55 AM 80.6 °F 85.4 °F 73.4 °F 79% 30.00 in 10.0 mi SSW 5.8 mph - N/A   Unknown
6:15 AM 80.6 °F 85.4 °F 73.4 °F 79% 30.01 in 10.0 mi South 4.6 mph - N/A   Unknown
6:35 AM 80.6 °F 85.4 °F 73.4 °F 79% 30.01 in 10.0 mi South 4.6 mph - N/A   Unknown
6:55 AM 80.6 °F 85.4 °F 73.4 °F 79% 30.02 in 10.0 mi SSW 3.5 mph - N/A   Unknown
7:15 AM 80.6 °F 85.4 °F 73.4 °F 79% 30.02 in 10.0 mi SSW 3.5 mph - N/A   Unknown
7:35 AM 80.6 °F 85.4 °F 73.4 °F 79% 30.02 in 10.0 mi SSW 5.8 mph - N/A   Unknown
7:55 AM 82.4 °F 88.2 °F 73.4 °F 74% 30.03 in 10.0 mi South 4.6 mph - N/A   Unknown
8:15 AM 82.4 °F 88.2 °F 73.4 °F 74% 30.03 in 10.0 mi South 5.8 mph - N/A   Unknown
8:35 AM 82.4 °F 88.2 °F 73.4 °F 74% 30.03 in 10.0 mi SSW 5.8 mph - N/A   Unknown
8:55 AM 84.2 °F 89.6 °F 71.6 °F 66% 30.04 in 10.0 mi SSW 6.9 mph - N/A   Unknown
9:15 AM 86.0 °F 90.4 °F 69.8 °F 58% 30.04 in 10.0 mi SW 8.1 mph - N/A   Unknown
9:35 AM 86.0 °F 90.4 °F 69.8 °F 58% 30.03 in 10.0 mi SSW 8.1 mph - N/A   Unknown
9:55 AM 87.8 °F 92.6 °F 69.8 °F 55% 30.03 in 10.0 mi SSW 12.7 mph - N/A   Unknown
10:15 AM 87.8 °F 90.4 °F 66.2 °F 49% 30.04 in 10.0 mi SW 9.2 mph - N/A   Unknown
10:35 AM 89.6 °F 92.2 °F 66.2 °F 46% 30.04 in 10.0 mi SSW 6.9 mph - N/A   Unknown
10:55 AM 89.6 °F 92.2 °F 66.2 °F 46% 30.03 in 10.0 mi WSW 9.2 mph - N/A   Unknown
11:15 AM 89.6 °F 92.2 °F 66.2 °F 46% 30.03 in 10.0 mi WSW 8.1 mph - N/A   Unknown
11:35 AM 91.4 °F 94.0 °F 66.2 °F 43% 30.02 in 10.0 mi WSW 8.1 mph - N/A   Unknown
11:55 AM 91.4 °F 94.0 °F 66.2 °F 43% 30.02 in 10.0 mi South 8.1 mph - N/A   Unknown
12:15 PM 93.2 °F 96.2 °F 66.2 °F 41% 30.02 in 10.0 mi SW 8.1 mph - N/A   Unknown
12:35 PM 93.2 °F 96.2 °F 66.2 °F 41% 30.01 in 10.0 mi WSW 5.8 mph - N/A   Unknown
12:55 PM 93.2 °F 96.2 °F 66.2 °F 41% 30.00 in 10.0 mi SW 6.9 mph - N/A   Unknown
1:15 PM 95.0 °F 98.5 °F 66.2 °F 39% 29.99 in 10.0 mi SW 10.4 mph 16.1 mph N/A   Unknown
1:35 PM 96.8 °F 100.7 °F 66.2 °F 37% 29.99 in 10.0 mi SW 8.1 mph - N/A   Unknown
1:55 PM 96.8 °F 99.0 °F 64.4 °F 34% 29.98 in 10.0 mi WSW 8.1 mph - N/A   Unknown
2:15 PM 96.8 °F 99.0 °F 64.4 °F 34% 29.97 in 10.0 mi WSW 10.4 mph - N/A   Unknown
2:35 PM 98.6 °F 101.0 °F 64.4 °F 32% 29.97 in 10.0 mi SW 8.1 mph - N/A   Unknown
2:55 PM 98.6 °F 101.0 °F 64.4 °F 32% 29.96 in 10.0 mi SW 6.9 mph - N/A   Unknown
3:15 PM 98.6 °F 101.0 °F 64.4 °F 32% 29.95 in 10.0 mi South 4.6 mph - N/A   Unknown
3:35 PM 98.6 °F 101.0 °F 64.4 °F 32% 29.95 in 10.0 mi SSE 5.8 mph - N/A   Unknown
3:55 PM 98.6 °F 100.0 °F 62.6 °F 30% 29.94 in 10.0 mi SW 5.8 mph - N/A   Unknown
4:15 PM 98.6 °F 100.0 °F 62.6 °F 30% 29.93 in 10.0 mi SSW 6.9 mph - N/A   Unknown
4:35 PM 98.6 °F 100.0 °F 62.6 °F 30% 29.92 in 10.0 mi South 9.2 mph - N/A   Unknown
4:55 PM 98.6 °F 100.0 °F 62.6 °F 30% 29.91 in 10.0 mi SSW 4.6 mph - N/A   Unknown
5:15 PM 98.6 °F 100.0 °F 62.6 °F 30% 29.91 in 10.0 mi Calm Calm - N/A   Unknown
5:35 PM 98.6 °F 100.0 °F 62.6 °F 30% 29.90 in 10.0 mi SSW 3.5 mph - N/A   Unknown
5:55 PM 98.6 °F 101.0 °F 64.4 °F 32% 29.90 in 10.0 mi South 6.9 mph - N/A   Unknown
6:15 PM 98.6 °F 101.0 °F 64.4 °F 32% 29.89 in 10.0 mi SSE 4.6 mph - N/A   Unknown
6:35 PM 98.6 °F 101.0 °F 64.4 °F 32% 29.89 in 10.0 mi SSE 6.9 mph - N/A   Unknown
6:55 PM 98.6 °F 101.0 °F 64.4 °F 32% 29.89 in 10.0 mi SSE 5.8 mph - N/A   Unknown
7:15 PM 96.8 °F 98.0 °F 62.6 °F 32% 29.88 in 10.0 mi SSE 4.6 mph - N/A   Unknown
7:35 PM 96.8 °F 98.0 °F 62.6 °F 32% 29.88 in 10.0 mi Calm Calm - N/A   Unknown
7:55 PM 93.2 °F 94.9 °F 64.4 °F 38% 29.88 in 10.0 mi Calm Calm - N/A   Unknown
8:15 PM 91.4 °F 93.2 °F 64.4 °F 41% 29.89 in 10.0 mi Calm Calm - N/A   Unknown
8:35 PM 87.8 °F 90.4 °F 66.2 °F 49% 29.89 in 10.0 mi Calm Calm - N/A   Unknown
8:55 PM 86.0 °F 89.4 °F 68.0 °F 55% 29.89 in 10.0 mi Calm Calm - N/A   Unknown
9:15 PM 84.2 °F 87.3 °F 68.0 °F 58% 29.89 in 10.0 mi Calm Calm - N/A   Unknown
9:35 PM 84.2 °F 86.6 °F 66.2 °F 55% 29.90 in 8.0 mi SE 3.5 mph - N/A   Unknown
9:55 PM 86.0 °F 88.2 °F 66.2 °F 51% 29.91 in 10.0 mi Calm Calm - N/A   Unknown
10:15 PM 84.2 °F 88.4 °F 69.8 °F 62% 29.92 in 10.0 mi Calm Calm - N/A   Unknown
10:35 PM 82.4 °F 85.4 °F 68.0 °F 62% 29.92 in 10.0 mi Calm Calm - N/A   Unknown
10:55 PM 84.2 °F 87.3 °F 68.0 °F 58% 29.92 in 10.0 mi SE 3.5 mph - N/A   Unknown
11:15 PM 86.0 °F 89.4 °F 68.0 °F 55% 29.91 in 10.0 mi SSE 5.8 mph - N/A   Unknown
11:35 PM 86.0 °F 90.4 °F 69.8 °F 58% 29.91 in 10.0 mi SE 4.6 mph - N/A   Unknown
11:55 PM 86.0 °F 89.4 °F 68.0 °F 55% 29.91 in 10.0 mi SSE 4.6 mph - N/A   Unknown